Location: Kergrach
(48.3833°N, 4.5167°W)
Time: 20:47:54
(UTC+00:00)

Cosmos 2219 Rocket - Pass Details

Date: 18 February 2020
Orbit: 829 x 846 km, 71.0° (Epoch: 07 April)

Event Time Altitude Azimuth Distance (km) Brightness Sun altitude
Exits shadow 05:40:16 11° 322° (NW) 2,410 4.2 -17.4°
Maximum altitude 05:41:17 11° 333° (NNW) 2,378 4.3 -17.2°
Drops below altitude 10° 05:43:05 10° 351° (N) 2,478 4.6 -16.9°
Sets 05:47:38 0° 25° (NNE) 3,414 5.7 -16.2°
